Time,TemperatureF,DewpointF,PressureIn,WindDirection,WindDirectionDegrees,WindSpeedMPH,WindSpeedGustMPH,Humidity,HourlyPrecipIn,Conditions,Clouds,dailyrainin,SoftwareType,DateUTC
2013-06-23 00:02:00,64.0,50.0,29.84,SW,224,0.0,1.0,60,0.00,,,0.00,,2013-06-23 07:02:00,
2013-06-23 00:12:00,64.0,50.0,29.84,SW,224,0.0,0.0,60,0.00,,,0.00,,2013-06-23 07:12:00,
2013-06-23 00:22:00,64.0,51.0,29.84,SW,224,0.0,0.0,62,0.00,,,0.00,,2013-06-23 07:22:00,
2013-06-23 00:33:00,64.0,51.0,29.84,SW,225,0.0,3.0,62,0.00,,,0.00,,2013-06-23 07:33:00,
2013-06-23 00:42:00,63.0,51.0,29.83,SW,225,0.0,3.0,64,0.00,,,0.00,,2013-06-23 07:42:00,
2013-06-23 00:53:00,63.0,51.0,29.83,South,190,0.0,3.0,64,0.00,,,0.00,,2013-06-23 07:53:00,
2013-06-23 01:02:00,63.0,50.0,29.83,South,190,0.0,1.0,63,0.00,,,0.00,,2013-06-23 08:02:00,
2013-06-23 01:11:00,63.0,50.0,29.83,WSW,242,0.0,4.0,63,0.00,,,0.00,,2013-06-23 08:11:00,
2013-06-23 01:22:00,63.0,51.0,29.83,WSW,242,0.0,1.0,64,0.00,,,0.00,,2013-06-23 08:22:00,
2013-06-23 01:33:00,63.0,51.0,29.83,WNW,285,0.0,1.0,66,0.00,,,0.00,,2013-06-23 08:33:00,
2013-06-23 01:42:00,63.0,52.0,29.83,WNW,285,0.0,1.0,68,0.00,,,0.00,,2013-06-23 08:42:00,
2013-06-23 01:53:00,62.0,52.0,29.82,WNW,285,0.0,1.0,69,0.00,,,0.00,,2013-06-23 08:53:00,
2013-06-23 02:02:00,62.0,52.0,29.82,WNW,285,0.0,0.0,71,0.00,,,0.00,,2013-06-23 09:02:00,
2013-06-23 02:12:00,62.0,53.0,29.82,WNW,285,0.0,0.0,72,0.00,,,0.00,,2013-06-23 09:12:00,
2013-06-23 02:22:00,62.0,54.0,29.82,WNW,285,0.0,0.0,74,0.00,,,0.00,,2013-06-23 09:22:00,
2013-06-23 02:34:00,62.0,54.0,29.82,WNW,285,0.0,1.0,76,0.00,,,0.00,,2013-06-23 09:34:00,
2013-06-23 02:43:00,62.0,55.0,29.81,WNW,285,0.0,0.0,79,0.00,,,0.00,,2013-06-23 09:43:00,
2013-06-23 02:53:00,62.0,56.0,29.81,WNW,285,0.0,1.0,80,0.00,,,0.00,,2013-06-23 09:53:00,
2013-06-23 03:02:00,61.0,55.0,29.81,WNW,285,0.0,0.0,81,0.00,,,0.00,,2013-06-23 10:02:00,
2013-06-23 03:11:00,61.0,55.0,29.81,WNW,285,0.0,1.0,82,0.00,,,0.00,,2013-06-23 10:11:00,
2013-06-23 03:22:00,60.0,55.0,29.80,WNW,285,0.0,0.0,83,0.00,,,0.00,,2013-06-23 10:22:00,
2013-06-23 03:34:00,60.0,55.0,29.80,WNW,285,0.0,0.0,83,0.00,,,0.00,,2013-06-23 10:34:00,
2013-06-23 03:43:00,60.0,55.0,29.80,WNW,285,0.0,0.0,84,0.00,,,0.00,,2013-06-23 10:43:00,
2013-06-23 03:52:00,60.0,55.0,29.79,WNW,285,0.0,0.0,85,0.00,,,0.00,,2013-06-23 10:52:00,
2013-06-23 04:01:00,60.0,56.0,29.79,WNW,285,0.0,0.0,86,0.01,,,0.01,,2013-06-23 11:01:00,
2013-06-23 04:11:00,60.0,56.0,29.79,WNW,285,0.0,0.0,86,0.01,,,0.01,,2013-06-23 11:11:00,
2013-06-23 04:22:00,60.0,56.0,29.78,WNW,285,0.0,0.0,86,0.01,,,0.01,,2013-06-23 11:22:00,
2013-06-23 04:33:00,60.0,56.0,29.78,WNW,285,0.0,0.0,87,0.01,,,0.01,,2013-06-23 11:33:00,
2013-06-23 04:43:00,60.0,56.0,29.78,WNW,285,0.0,0.0,88,0.01,,,0.01,,2013-06-23 11:43:00,
2013-06-23 04:53:00,60.0,56.0,29.78,WNW,285,0.0,0.0,88,0.01,,,0.01,,2013-06-23 11:53:00,
2013-06-23 05:01:00,60.0,57.0,29.78,WNW,285,0.0,0.0,89,0.00,,,0.01,,2013-06-23 12:01:00,
2013-06-23 05:11:00,60.0,57.0,29.78,WNW,285,0.0,0.0,89,0.00,,,0.01,,2013-06-23 12:11:00,
2013-06-23 05:22:00,60.0,57.0,29.78,WNW,285,0.0,0.0,89,0.00,,,0.01,,2013-06-23 12:22:00,
2013-06-23 05:33:00,60.0,57.0,29.77,WNW,285,0.0,0.0,89,0.00,,,0.01,,2013-06-23 12:33:00,
2013-06-23 05:42:00,60.0,57.0,29.77,East,80,0.0,0.0,89,0.00,,,0.01,,2013-06-23 12:42:00,
2013-06-23 05:53:00,60.0,57.0,29.77,East,80,0.0,0.0,89,0.00,,,0.01,,2013-06-23 12:53:00,
2013-06-23 06:01:00,60.0,57.0,29.77,East,80,0.0,0.0,90,0.00,,,0.01,,2013-06-23 13:01:00,
2013-06-23 06:23:00,60.0,57.0,29.77,East,80,0.0,0.0,90,0.00,,,0.01,,2013-06-23 13:23:00,
2013-06-23 06:33:00,60.0,57.0,29.76,East,80,0.0,0.0,91,0.00,,,0.01,,2013-06-23 13:33:00,
2013-06-23 06:43:00,60.0,57.0,29.76,East,80,0.0,0.0,90,0.00,,,0.01,,2013-06-23 13:43:00,
2013-06-23 06:53:00,60.0,57.0,29.76,East,87,0.0,0.0,91,0.00,,,0.01,,2013-06-23 13:53:00,
2013-06-23 07:11:00,60.0,57.0,29.75,East,87,0.0,0.0,91,0.00,,,0.01,,2013-06-23 14:11:00,
2013-06-23 07:44:00,60.0,57.0,29.75,East,87,0.0,0.0,91,0.00,,,0.01,,2013-06-23 14:44:00,
2013-06-23 07:52:00,61.0,58.0,29.75,East,87,0.0,1.0,90,0.00,,,0.01,,2013-06-23 14:52:00,
2013-06-23 08:05:00,61.0,58.0,29.74,East,87,0.0,0.0,90,0.00,,,0.01,,2013-06-23 15:05:00,
2013-06-23 08:11:00,61.0,58.0,29.75,East,87,0.0,0.0,90,0.00,,,0.01,,2013-06-23 15:11:00,
2013-06-23 08:22:00,61.0,58.0,29.75,East,87,0.0,0.0,90,0.00,,,0.01,,2013-06-23 15:22:00,
2013-06-23 08:34:00,61.0,58.0,29.75,East,87,0.0,1.0,90,0.00,,,0.01,,2013-06-23 15:34:00,
2013-06-23 08:43:00,62.0,59.0,29.75,East,87,0.0,0.0,89,0.00,,,0.01,,2013-06-23 15:43:00,
2013-06-23 08:52:00,62.0,59.0,29.75,East,87,0.0,1.0,89,0.00,,,0.01,,2013-06-23 15:52:00,
2013-06-23 09:05:00,62.0,58.0,29.75,East,87,0.0,1.0,88,0.00,,,0.01,,2013-06-23 16:05:00,
2013-06-23 09:11:00,62.0,58.0,29.75,East,87,0.0,1.0,87,0.00,,,0.01,,2013-06-23 16:11:00,
2013-06-23 09:22:00,63.0,59.0,29.74,East,87,0.0,2.0,87,0.00,,,0.01,,2013-06-23 16:22:00,
2013-06-23 09:34:00,63.0,59.0,29.74,East,87,1.0,2.0,86,0.00,,,0.01,,2013-06-23 16:34:00,
2013-06-23 09:42:00,64.0,59.0,29.74,East,87,0.0,1.0,85,0.00,,,0.01,,2013-06-23 16:42:00,
2013-06-23 09:52:00,64.0,59.0,29.74,ESE,103,0.0,3.0,84,0.00,,,0.01,,2013-06-23 16:52:00,
2013-06-23 10:02:00,65.0,59.0,29.73,NE,55,0.0,3.0,82,0.00,,,0.01,,2013-06-23 17:02:00,
2013-06-23 10:11:00,65.0,59.0,29.73,ENE,59,1.0,4.0,80,0.00,,,0.01,,2013-06-23 17:11:00,
2013-06-23 10:22:00,65.0,59.0,29.73,East,91,2.0,4.0,80,0.00,,,0.01,,2013-06-23 17:22:00,
2013-06-23 10:33:00,66.0,59.0,29.72,East,83,2.0,3.0,79,0.00,,,0.01,,2013-06-23 17:33:00,
2013-06-23 10:43:00,66.0,59.0,29.72,East,84,2.0,4.0,79,0.00,,,0.01,,2013-06-23 17:43:00,
2013-06-23 10:52:00,66.0,60.0,29.72,East,84,0.0,3.0,80,0.00,,,0.01,,2013-06-23 17:52:00,
2013-06-23 11:01:00,66.0,59.0,29.72,ESE,121,1.0,2.0,78,0.00,,,0.01,,2013-06-23 18:01:00,
2013-06-23 11:11:00,66.0,60.0,29.72,SE,136,1.0,2.0,81,0.00,,,0.01,,2013-06-23 18:11:00,
2013-06-23 11:22:00,66.0,60.0,29.72,SE,136,0.0,3.0,80,0.00,,,0.01,,2013-06-23 18:22:00,
2013-06-23 11:33:00,66.0,60.0,29.71,SE,136,0.0,3.0,81,0.00,,,0.01,,2013-06-23 18:33:00,
2013-06-23 11:42:00,67.0,61.0,29.71,SE,136,0.0,2.0,81,0.01,,,0.02,,2013-06-23 18:42:00,
2013-06-23 11:53:00,68.0,62.0,29.70,SE,136,0.0,1.0,80,0.01,,,0.02,,2013-06-23 18:53:00,
2013-06-23 12:01:00,68.0,61.0,29.70,ENE,64,0.0,4.0,78,0.01,,,0.02,,2013-06-23 19:01:00,
2013-06-23 12:11:00,68.0,61.0,29.70,ENE,64,0.0,1.0,77,0.01,,,0.02,,2013-06-23 19:11:00,
2013-06-23 12:43:00,68.0,61.0,29.70,WSW,256,0.0,4.0,77,0.00,,,0.02,,2013-06-23 19:43:00,
2013-06-23 12:53:00,68.0,61.0,29.70,SSW,205,0.0,2.0,78,0.00,,,0.02,,2013-06-23 19:53:00,
2013-06-23 13:01:00,68.0,61.0,29.69,SW,234,0.0,3.0,77,0.00,,,0.02,,2013-06-23 20:01:00,
2013-06-23 13:11:00,69.0,62.0,29.69,WNW,292,1.0,3.0,78,0.00,,,0.02,,2013-06-23 20:11:00,
2013-06-23 13:23:00,69.0,61.0,29.68,SSW,213,3.0,4.0,77,0.00,,,0.02,,2013-06-23 20:23:00,
2013-06-23 13:33:00,70.0,61.0,29.68,WNW,292,0.0,4.0,73,0.00,,,0.02,,2013-06-23 20:33:00,
2013-06-23 13:42:00,71.0,61.0,29.67,SSW,198,0.0,4.0,70,0.00,,,0.02,,2013-06-23 20:42:00,
2013-06-23 13:52:00,72.0,62.0,29.67,NW,312,1.0,5.0,70,0.00,,,0.02,,2013-06-23 20:52:00,
2013-06-23 14:01:00,72.0,61.0,29.67,NW,310,0.0,3.0,68,0.00,,,0.02,,2013-06-23 21:01:00,
2013-06-23 14:11:00,72.0,61.0,29.67,WNW,291,1.0,3.0,68,0.00,,,0.02,,2013-06-23 21:11:00,
2013-06-23 14:22:00,73.0,61.0,29.66,West,274,0.0,3.0,67,0.00,,,0.02,,2013-06-23 21:22:00,
2013-06-23 14:33:00,73.0,59.0,29.66,NNE,12,1.0,7.0,62,0.00,,,0.02,,2013-06-23 21:33:00,
2013-06-23 14:43:00,74.0,60.0,29.66,WNW,301,2.0,5.0,62,0.00,,,0.02,,2013-06-23 21:43:00,
2013-06-23 14:52:00,74.0,60.0,29.65,SW,219,1.0,4.0,62,0.00,,,0.02,,2013-06-23 21:52:00,
2013-06-23 15:01:00,74.0,60.0,29.65,WNW,284,2.0,5.0,61,0.00,,,0.02,,2013-06-23 22:01:00,
2013-06-23 15:11:00,75.0,61.0,29.65,NW,312,2.0,6.0,62,0.00,,,0.02,,2013-06-23 22:11:00,
2013-06-23 15:22:00,76.0,60.0,29.64,South,178,1.0,6.0,57,0.00,,,0.02,,2013-06-23 22:22:00,
2013-06-23 15:32:00,76.0,60.0,29.64,WNW,297,1.0,4.0,58,0.00,,,0.02,,2013-06-23 22:32:00,
2013-06-23 15:43:00,76.0,60.0,29.64,WNW,297,1.0,4.0,58,0.00,,,0.02,,2013-06-23 22:43:00,
2013-06-23 15:53:00,75.0,58.0,29.64,WSW,254,1.0,6.0,56,0.00,,,0.02,,2013-06-23 22:53:00,
2013-06-23 16:01:00,74.0,58.0,29.63,ESE,120,1.0,4.0,58,0.00,,,0.02,,2013-06-23 23:01:00,
2013-06-23 16:11:00,73.0,59.0,29.64,SW,223,1.0,7.0,61,0.00,,,0.02,,2013-06-23 23:11:00,
2013-06-23 16:22:00,72.0,59.0,29.64,WSW,242,0.0,1.0,64,0.00,,,0.02,,2013-06-23 23:22:00,
2013-06-23 16:33:00,72.0,60.0,29.64,ESE,119,0.0,1.0,67,0.00,,,0.02,,2013-06-23 23:33:00,
2013-06-23 16:44:00,71.0,61.0,29.64,SSE,168,3.0,5.0,71,0.01,,,0.03,,2013-06-23 23:44:00,
2013-06-23 16:52:00,70.0,62.0,29.65,SSE,148,0.0,4.0,75,0.04,,,0.06,,2013-06-23 23:52:00,
2013-06-23 17:01:00,69.0,63.0,29.64,NNE,15,0.0,3.0,80,0.11,,,0.13,,2013-06-24 00:01:00,
2013-06-23 17:11:00,69.0,64.0,29.64,NNW,329,0.0,2.0,84,0.12,,,0.14,,2013-06-24 00:11:00,
2013-06-23 17:22:00,68.0,63.0,29.64,NW,325,0.0,1.0,83,0.12,,,0.14,,2013-06-24 00:22:00,
2013-06-23 17:33:00,68.0,63.0,29.64,NW,325,0.0,1.0,84,0.12,,,0.14,,2013-06-24 00:33:00,
2013-06-23 17:42:00,68.0,64.0,29.64,NNW,331,0.0,3.0,86,0.11,,,0.14,,2013-06-24 00:42:00,
2013-06-23 17:52:00,68.0,64.0,29.64,WSW,256,1.0,2.0,86,0.08,,,0.14,,2013-06-24 00:52:00,
2013-06-23 18:01:00,67.0,63.0,29.63,West,267,0.0,6.0,86,0.01,,,0.14,,2013-06-24 01:01:00,
2013-06-23 18:11:00,67.0,63.0,29.63,WSW,238,0.0,3.0,87,0.00,,,0.14,,2013-06-24 01:11:00,
2013-06-23 18:21:00,67.0,63.0,29.63,WNW,287,0.0,4.0,87,0.00,,,0.14,,2013-06-24 01:21:00,
2013-06-23 18:32:00,66.0,62.0,29.63,WNW,287,0.0,2.0,87,0.01,,,0.15,,2013-06-24 01:32:00,
2013-06-23 18:42:00,66.0,62.0,29.63,WNW,292,0.0,3.0,87,0.02,,,0.16,,2013-06-24 01:42:00,
2013-06-23 18:52:00,66.0,62.0,29.63,WNW,292,0.0,1.0,88,0.02,,,0.16,,2013-06-24 01:52:00,
2013-06-23 19:01:00,66.0,62.0,29.63,West,264,0.0,2.0,87,0.02,,,0.16,,2013-06-24 02:01:00,
2013-06-23 19:11:00,66.0,62.0,29.63,West,264,0.0,2.0,88,0.02,,,0.16,,2013-06-24 02:11:00,
2013-06-23 19:21:00,66.0,62.0,29.63,South,185,0.0,3.0,88,0.02,,,0.16,,2013-06-24 02:21:00,
2013-06-23 19:33:00,66.0,62.0,29.63,South,173,0.0,3.0,88,0.01,,,0.16,,2013-06-24 02:33:00,
2013-06-23 19:42:00,66.0,63.0,29.62,South,175,0.0,2.0,89,0.00,,,0.16,,2013-06-24 02:42:00,
2013-06-23 19:53:00,65.0,61.0,29.62,WSW,248,0.0,4.0,87,0.00,,,0.16,,2013-06-24 02:53:00,
2013-06-23 20:01:00,65.0,61.0,29.62,West,269,0.0,1.0,88,0.00,,,0.16,,2013-06-24 03:01:00,
2013-06-23 20:11:00,65.0,61.0,29.62,West,269,0.0,0.0,88,0.00,,,0.16,,2013-06-24 03:11:00,
2013-06-23 20:21:00,65.0,62.0,29.62,West,269,0.0,1.0,89,0.00,,,0.16,,2013-06-24 03:21:00,
2013-06-23 20:33:00,65.0,62.0,29.62,South,173,0.0,3.0,89,0.00,,,0.16,,2013-06-24 03:33:00,
2013-06-23 20:42:00,64.0,60.0,29.63,WNW,286,0.0,2.0,88,0.00,,,0.16,,2013-06-24 03:42:00,
2013-06-23 20:53:00,64.0,60.0,29.62,West,281,0.0,1.0,88,0.00,,,0.16,,2013-06-24 03:53:00,
2013-06-23 21:01:00,63.0,59.0,29.62,West,281,0.0,1.0,87,0.00,,,0.16,,2013-06-24 04:01:00,
2013-06-23 21:11:00,63.0,59.0,29.62,West,281,0.0,0.0,88,0.00,,,0.16,,2013-06-24 04:11:00,
2013-06-23 21:22:00,63.0,60.0,29.62,West,281,0.0,0.0,89,0.00,,,0.16,,2013-06-24 04:22:00,
2013-06-23 21:33:00,62.0,59.0,29.62,West,281,0.0,2.0,89,0.00,,,0.16,,2013-06-24 04:33:00,
2013-06-23 21:43:00,62.0,59.0,29.62,West,281,0.0,1.0,90,0.00,,,0.16,,2013-06-24 04:43:00,
2013-06-23 21:52:00,62.0,59.0,29.62,West,281,0.0,0.0,90,0.00,,,0.16,,2013-06-24 04:52:00,
2013-06-23 22:02:00,62.0,59.0,29.62,West,281,0.0,0.0,90,0.00,,,0.16,,2013-06-24 05:02:00,
2013-06-23 22:12:00,62.0,59.0,29.63,West,281,0.0,0.0,90,0.00,,,0.16,,2013-06-24 05:12:00,
2013-06-23 22:22:00,62.0,60.0,29.63,West,281,1.0,3.0,92,0.00,,,0.16,,2013-06-24 05:22:00,
2013-06-23 22:33:00,62.0,60.0,29.63,West,281,0.0,0.0,92,0.00,,,0.16,,2013-06-24 05:33:00,
2013-06-23 22:43:00,62.0,60.0,29.64,West,281,0.0,0.0,92,0.00,,,0.16,,2013-06-24 05:43:00,
2013-06-23 22:52:00,61.0,59.0,29.64,West,281,0.0,0.0,92,0.00,,,0.16,,2013-06-24 05:52:00,
2013-06-23 23:01:00,61.0,59.0,29.64,WSW,244,0.0,2.0,92,0.00,,,0.16,,2013-06-24 06:01:00,
2013-06-23 23:21:00,61.0,59.0,29.65,WSW,240,0.0,3.0,93,0.00,,,0.16,,2013-06-24 06:21:00,
2013-06-23 23:33:00,61.0,59.0,29.64,WSW,240,0.0,2.0,92,0.00,,,0.16,,2013-06-24 06:33:00,
2013-06-23 23:42:00,61.0,58.0,29.64,SSE,151,0.0,4.0,91,0.00,,,0.16,,2013-06-24 06:42:00,
2013-06-23 23:52:00,60.0,57.0,29.64,SSW,211,1.0,5.0,89,0.00,,,0.16,,2013-06-24 06:52:00,